G-SAT (45597 NORAD) Tracking and Keplerian Element Data

This shows tracking and keplerian element data for the satellite.

Feedback or suggestion? Click here.




ElementValue
Catalog45597
NameG-SAT
Epoch Orbit1102
Epoch Day189.80545293
Epoch Year2020
RAAN245.8756
Inclination51.6413
Eccentricity0.0005317
Argument of Perigee131.2343
Mean Anonmoly228.9105
Mean Motion15.50744097
Decay Rate2.893E-05
L11 45597U 98067RK 20189.80545293 .00002893 00000-0 57211-4 0 9998
L22 45597 51.6413 245.8756 0005317 131.2343 228.9105 15.50744097 11025

Live tracking and technical data element details for G-SAT (NORAD 45597). G-SAT can be tracked NOW for your location showing map with azimuth and elevation plus other details from your city location.

Track the satellite on the map from your city or location and see movement details for azimuth, elevation, latitude, longitude, range, height, and movement on the map or in text.







IsCatalogInMostPopularTable: catalog: 45597, numindb: 19
Update: records affected: 1



GetName: 45597 G-SAT

Hit Count: updated at: Thu, 09 Jul 2020 00:49:06 GMT